Location: ????
(32.2763°N, 34.9487°E)
Time: 03:26:45
(UTC+00:00)

Daily predictions for brighter satellites

Satellite Brightness Start Highest point End
(mag) Time Altitude Azimuth Time Altitude Azimuth Time Altitude Azimuth
Cosmos 1980 Rocket 4.1 00:23:49 24° NNE 00:23:49 24° NNE 00:25:59 10° NNE
Cosmos 2322 Rocket 4.4 00:26:07 16° ESE 00:27:25 18° E 00:31:03 10° ENE
SL-16 R/B 3.8 00:35:54 27° ESE 00:36:16 27° ESE 00:40:58 10° NE
BREEZE-M DEB (TANK) 4.2 00:57:54 60° NW 00:58:37 62° NNW 01:17:43 10° ENE
IDEFIX/ARIANE 42P 4.0 00:53:29 10° N 00:56:03 29° N 00:56:03 29° N
Meteor 2-6 Rocket 4.5 01:01:17 64° E 01:01:19 64° E 01:07:01 10° NNE
CZ-2C R/B 3.8 01:00:51 10° NNE 01:05:37 37° E 01:08:06 24° SSE
NOSS 3-3 (A) 4.3 01:09:13 49° NNW 01:09:13 49° NNW 01:14:09 10° NNE
NOSS 3-3 (C) 4.3 01:09:23 49° NNW 01:09:23 49° NNW 01:14:14 10° NNE
SL-4 R/B 3.3 01:10:15 43° NE 01:10:15 43° NE 01:13:28 10° NE
Cosmos 1238 Rocket 3.7 01:18:18 10° N 01:24:45 73° W 01:25:25 66° SW
Cosmos 1727 Rocket 4.3 01:19:17 13° S 01:25:02 67° E 01:31:19 10° NNE
SJ 16-02 2.7 01:22:20 10° N 01:26:28 39° ENE 01:30:35 10° SE
H-2A R/B 2.6 01:23:47 10° SSE 01:28:01 60° ENE 01:32:23 10° N
PAYLOAD A 3.8 01:24:26 10° NNE 01:29:07 76° ESE 01:29:52 61° SSE
Cosmos 468 Rocket 3.9 01:29:05 71° SSW 01:29:42 88° WNW 01:35:00 10° NNE
PSLV R/B 3.6 01:25:39 10° NNE 01:29:48 70° E 01:29:48 70° E
Cosmos 1339 Rocket 4.4 01:30:54 58° WSW 01:31:25 60° W 01:37:35 10° N
ADEOS Rocket 4.4 01:25:21 10° SE 01:31:51 42° ENE 01:37:45 10° N
Landsat 5 3.5 01:36:36 10° SSE 01:41:07 89° W 01:45:38 10° NNW
USA 234 3.8 01:37:07 10° ESE 01:43:27 56° NE 01:49:48 10° NNW
Meteor 1-11 Rocket 4.5 01:38:24 10° N 01:44:00 53° E 01:49:27 10° SSE
CZ-4B R/B 4.0 01:44:40 10° ESE 01:47:02 20° ENE 01:49:27 10° NNE
Meteor 1-27 Rocket 3.9 01:42:27 10° S 01:48:21 82° E 01:54:18 10° N
ALOS 3.8 01:45:25 10° NNE 01:49:44 36° E 01:54:01 10° SSE
ERS-2 2.5 01:49:50 10° SSE 01:53:26 63° ENE 01:57:04 10° N
Cosmos 2360 Rocket 2.7 01:48:41 10° S 01:54:13 58° ESE 01:59:46 10° NNE
Chandra Rocket (1) 4.1 01:46:28 26° W 01:54:52 52° SSW 02:00:17 10° SE
Cosmos 1980 Rocket 4.2 02:05:36 12° NW 02:05:36 12° NW 02:06:56 10° NW
Cosmos 1484 Rocket 3.5 02:01:30 10° NNE 02:05:26 56° E 02:09:22 10° S
Cosmos 1898 Rocket 3.8 02:01:13 10° N 02:06:29 69° ENE 02:11:44 10° SSE
IRIDIUM 104 4.4 02:04:02 10° NNW 02:09:04 50° W 02:14:04 10° SSW
Cosmos 1536 3.2 02:06:35 10° N 02:10:38 68° E 02:14:39 10° SSE
Cosmos 2322 Rocket 2.4 02:08:01 26° SW 02:10:58 49° WNW 02:16:28 10° N
FENGYUN 3A 4.0 02:06:13 10° NNE 02:11:35 69° ESE 02:16:58 10° S
X-37B 3.4 02:10:30 10° NNW 02:12:00 13° NNE 02:13:30 10° NE
Cosmos 2208 Rocket 4.0 02:08:40 10° SSW 02:13:56 83° ESE 02:19:09 10° NNE
Cosmos 1437 Rocket 4.1 02:10:33 10° SSE 02:14:04 40° E 02:17:39 10° NNE
ATLAS CENTAUR Rocket 3.2 02:04:43 21° W 02:14:19 68° S 02:18:51 10° ESE
Meteor 1-31 Rocket 3.2 02:13:03 10° NNE 02:16:52 63° E 02:20:40 10° S
deb Chang Zheng 4 3.4 02:13:10 10° N 02:17:26 72° WNW 02:21:40 10° SSW
Cosmos 2263 Rocket 2.2 02:12:38 10° NNW 02:18:13 61° WSW 02:23:47 10° S
SL-16 R/B 2.9 02:17:49 24° WSW 02:20:10 32° WNW 02:25:13 10° N
Cosmos 2237 4.2 02:15:26 10° SSW 02:21:07 72° WNW 02:26:50 10° NNE
Cosmos 1707 Rocket 4.1 02:20:29 22° SW 02:22:34 34° W 02:26:31 10° NNW
Cosmos 2173 Rocket 4.2 02:16:19 10° N 02:22:41 81° E 02:29:03 10° S
USA 32 4.0 02:18:43 10° NNW 02:23:52 59° W 02:28:59 10° SSW
Cosmos 1937 Rocket 3.5 02:27:17 10° NNW 02:32:26 86° ENE 02:37:34 10° SSE
Cosmos 1814 Rocket 4.0 02:27:48 10° SSW 02:32:55 65° WNW 02:38:08 10° N
ADEOS 3.7 02:28:38 10° N 02:33:41 52° WNW 02:38:43 10° SSW
Cosmos 841 Rocket 3.8 02:29:50 10° SW 02:34:49 47° WNW 02:39:52 10° N
Cosmos 1666 3.4 02:33:42 10° NNW 02:37:05 31° W 02:40:26 10° SSW
Cosmos 2061 Rocket 4.4 02:35:04 10° N 02:41:32 75° E 02:47:55 10° S
Cosmos 44 Rocket 3.8 02:37:49 13° WSW 02:41:35 37° WNW 02:46:02 10° N
SAR-Lupe-4 3.5 02:39:04 10° S 02:42:37 66° WSW 02:46:12 10° NNW
CZ-2C R/B 3.8 02:39:43 10° NNW 02:43:32 21° WNW 02:47:22 10° WSW
Skynet4D Del rocket 4.4 02:39:27 14° WSW 02:43:53 42° S 02:49:44 10° ESE
Cosmos 2219 Rocket 3.1 02:39:20 10° S 02:44:48 54° ESE 02:50:19 10° NNE
Cosmos 1733 Rocket 3.1 02:42:49 10° NNW 02:47:04 57° W 02:51:16 10° S
SL-4 R/B 4.1 02:45:52 10° WNW 02:49:01 19° NNW 02:52:22 10° NNE
COSMOS 2428 3.7 02:44:30 10° S 02:49:59 51° ESE 02:55:31 10° NNE
Meteor 2-20 Rocket 4.4 02:44:28 10° S 02:50:37 77° W 02:56:46 10° N
Cosmos 2016 Rocket 4.0 02:47:10 10° N 02:53:18 86° W 02:59:23 10° S
SAR-Lupe-1 4.3 02:51:24 10° S 02:54:48 45° W 02:58:14 10° NNW
Cosmos 1862 Rocket 4.4 02:52:51 10° SW 02:56:43 30° W 03:00:35 10° NNW
NOSS 3-4 (A) 4.4 02:49:43 10° NNW 02:57:00 69° ENE 03:04:58 10° SE
NOSS 3-4 (C) 4.4 02:49:50 10° NNW 02:57:06 68° ENE 03:05:04 10° SE
Cosmos 2333 Rocket 2.4 02:54:07 10° SSW 02:59:52 83° ESE 03:05:39 10° NNE
Meteor 1-18 Rocket 4.2 02:57:22 10° SSW 03:02:54 78° W 03:08:27 10° N
SJ 16-02 3.0 03:02:38 10° WNW 03:04:36 13° W 03:06:34 10° WSW
SJ-12 4.1 03:00:41 10° N 03:04:42 51° WNW 03:08:42 10° SSW
